DW2059 Weather Reports


time (UTC)temp
C
wind
direction
speed
KPH
gust
KPH
rain 1hr
cm
rain 24hr
cm
rain mn
cm
humidity
%
barometer
mb
20260503230016 16 360 4.8 14.5 0.00 0.00 0.13 71 1014.2
20260503224515 17 360 3.2 17.7 0.00 0.00 0.13 71 1014.3
20260503223014 17 360 6.4 9.7 0.00 0.00 0.13 72 1014.3
20260503221513 17 360 4.8 12.9 0.00 0.00 0.13 71 1014.3
20260503220012 17 360 1.6 16.1 0.00 0.00 0.13 72 1014.3
20260503214511 17 360 1.6 16.1 0.00 0.00 0.13 72 1014.4
20260503213010 17 360 1.6 12.9 0.00 0.00 0.13 72 1014.3
20260503211509 17 360 3.2 12.9 0.00 0.00 0.13 73 1014.2
20260503210008 17 360 4.8 14.5 0.00 0.00 0.13 73 1014.2
20260503204507 16 360 1.6 12.9 0.00 0.00 0.13 74 1014.3
20260503203006 16 360 8.0 9.7 0.00 0.00 0.13 75 1014.5
20260503200004 16 360 3.2 14.5 0.00 0.00 0.13 73 1014.5
20260503194503 15 360 4.8 12.9 0.00 0.00 0.13 75 1014.5
20260503193002 15 360 1.6 8.0 0.00 0.00 0.13 80 1014.6
20260503191501 15 360 3.2 9.7 0.00 0.00 0.13 82 1014.6
20260503182958 14 360 4.8 6.4 0.00 0.00 0.13 85 1014.4
20260503181457 14 360 1.6 9.7 0.00 0.00 0.13 86 1014.4
20260503175955 15 125 3.2 14.5 0.00 0.00 0.13 88 1014.4
20260503174455 14 142 3.2 6.4 0.00 0.00 0.13 88 1014.3
20260503172954 14 172 0.0 0.0 0.00 0.00 0.13 89 1014.2
20260503171453 13 360 0.0 0.0 0.00 0.00 0.13 89 1014.2
20260503081416 13 360 0.0 0.0 0.00 0.00 0.00 85 1013.2
20260503072913 13 360 0.0 1.6 0.00 0.00 0.00 85 1013.1
20260503071411 13 360 0.0 1.6 0.00 0.00 0.00 85 1013.0
20260503054405 13 94 0.0 4.8 0.00 0.00 0.00 84 1013.5
20260503052904 13 94 0.0 3.2 0.00 0.00 0.00 84 1013.6
20260503051403 13 94 0.0 3.2 0.00 0.00 0.00 84 1013.7
20260503045902 13 58 0.0 1.6 0.00 0.00 0.00 84 1013.7
20260503044401 13 360 0.0 4.8 0.00 0.00 0.00 83 1013.6
20260503042900 13 360 0.0 3.2 0.00 0.00 0.00 83 1013.6
20260503041359 13 360 0.0 3.2 0.00 0.00 0.00 83 1013.4
20260503035858 13 360 3.2 3.2 0.00 0.00 0.00 83 1013.3
20260503034357 13 360 0.0 3.2 0.00 0.00 0.00 82 1013.3
20260503032856 13 360 0.0 3.2 0.00 0.00 0.00 81 1013.2
20260503031355 13 360 0.0 1.6 0.00 0.00 0.00 81 1012.9
20260503025854 13 360 0.0 3.2 0.00 0.00 0.00 80 1012.7
20260503024353 13 360 0.0 1.6 0.00 0.00 0.00 80 1012.7
20260503021351 14 360 1.6 1.6 0.00 0.00 0.00 79 1012.8
20260503015850 14 360 0.0 3.2 0.00 0.00 0.00 78 1012.9
20260503014349 15 360 0.0 1.6 0.00 0.00 0.00 78 1013.0
20260503012847 15 360 0.0 3.2 0.00 0.00 0.00 77 1013.0
20260503011346 15 360 1.6 4.8 0.00 0.00 0.00 78 1013.2
20260503005846 15 360 1.6 6.4 0.00 0.00 0.00 77 1013.2
20260503002843 15 360 1.6 4.8 0.00 0.00 0.00 76 1013.3
20260502235841 15 360 3.2 4.8 0.00 0.00 0.00 76 1013.5
20260502232839 15 360 3.2 4.8 0.00 0.00 0.00 77 1013.6
20260502231338 15 360 0.0 6.4 0.00 0.00 0.00 76 1013.8